Date,TemperatureHighF,TemperatureAvgF,TemperatureLowF,DewpointHighF,DewpointAvgF,DewpointLowF,HumidityHigh,HumidityAvg,HumidityLow,PressureMaxIn,PressureMinIn,WindSpeedMaxMPH,WindSpeedAvgMPH,GustSpeedMaxMPH,PrecipitationSumIn
2013-2-1,48,34,23,-100,-100,-100,0,0,100,0.00,40.00,14,7,19,0.00
2013-2-2,51,38,29,-100,-100,-100,0,0,100,0.00,40.00,27,12,34,0.00
2013-2-3,53,37,23,-100,-100,-100,0,0,100,0.00,40.00,14,6,16,0.00
2013-2-4,59,40,27,-100,-100,-100,0,0,100,0.00,40.00,15,8,23,0.00
2013-2-5,59,42,29,-100,-100,-100,0,0,100,0.00,40.00,16,8,20,0.00
2013-2-6,60,46,39,-100,-100,-100,0,0,100,0.00,40.00,15,7,19,0.00
2013-2-7,53,40,31,-100,-100,-100,0,0,100,0.00,40.00,19,9,22,0.00
2013-2-8,57,42,29,-100,-100,-100,0,0,100,0.00,40.00,23,10,28,0.00
2013-2-9,57,37,27,-100,-100,-100,0,0,100,0.00,40.00,37,11,41,0.00
2013-2-10,32,28,23,-100,-100,-100,0,0,100,0.00,40.00,35,22,46,0.00
2013-2-11,33,22,14,-100,-100,-100,0,0,100,0.00,40.00,19,7,23,0.00
2013-2-12,42,24,9,-100,-100,-100,0,0,100,0.00,40.00,16,6,19,0.00
2013-2-13,48,34,20,-100,-100,-100,0,0,100,0.00,40.00,23,12,27,0.00
2013-2-14,35,31,20,-100,-100,-100,0,0,100,0.00,40.00,27,13,34,0.00
2013-2-15,32,24,16,-100,-100,-100,0,0,100,0.00,40.00,14,7,19,0.00
2013-2-16,53,39,25,-100,-100,-100,0,0,100,0.00,40.00,23,12,30,0.00
2013-2-17,51,38,29,-100,-100,-100,0,0,100,0.00,40.00,26,8,36,0.00
2013-2-18,39,34,25,-100,-100,-100,0,0,100,0.00,40.00,22,14,31,0.00
2013-2-19,42,29,18,-100,-100,-100,0,0,100,0.00,40.00,18,10,26,0.00
2013-2-20,27,23,20,-100,-100,-100,0,0,100,0.00,40.00,23,16,34,0.00
2013-2-21,23,22,20,-100,-100,-100,0,0,100,0.00,40.00,18,11,20,0.00
2013-2-22,35,21,7,-100,-100,-100,0,0,100,0.00,40.00,10,6,12,0.00
2013-2-23,37,24,11,-100,-100,-100,0,0,100,0.00,40.00,18,6,18,0.00
2013-2-24,37,33,27,-100,-100,-100,0,0,100,0.00,40.00,24,15,33,0.00
2013-2-25,39,28,14,-100,-100,-100,0,0,100,0.00,40.00,16,7,17,0.00
2013-2-26,37,22,9,-100,-100,-100,0,0,100,0.00,40.00,14,6,15,0.00
2013-2-27,39,33,27,-100,-100,-100,0,0,100,0.00,40.00,21,14,27,0.00
2013-2-28,42,31,16,-100,-100,-100,0,0,100,0.00,40.00,19,10,21,0.00